This is the latest recevied weather packets stored in our database for station/object K7SKM. If no packets are shown the sender has not sent any weather packets the latest 10 day(s).
| Time | Temp. | Humidity | Pressure | Rain* | Wind** | Luminosity | Snow |
|---|---|---|---|---|---|---|---|
| 1777758223 | 24.44° C | 47% | 1019 hPa | 0 mm | - | 432 W/m² | - |
| 1777757920 | 24.44° C | 48% | 1019 hPa | 0 mm | - | 434 W/m² | - |
| 1777757617 | 24.44° C | 48% | 1019 hPa | 0 mm | - | 441 W/m² | - |
| 1777757316 | 23.89° C | 50% | 1019 hPa | 0 mm | - | 436 W/m² | - |
| 1777757014 | 23.89° C | 47% | 1019.2 hPa | 0 mm | - | 437 W/m² | - |
| 1777756711 | 22.78° C | 52% | 1019.3 hPa | 0 mm | - | 429 W/m² | - |
| 1777756406 | 22.22° C | 52% | 1019.3 hPa | 0 mm | - | 431 W/m² | - |
| 1777756104 | 23.33° C | 52% | 1019.4 hPa | 0 mm | - | 431 W/m² | - |
| 1777755801 | 23.89° C | 49% | 1019.3 hPa | 0 mm | - | 433 W/m² | - |
| 1777755498 | 23.89° C | 49% | 1019.4 hPa | 0 mm | - | 396 W/m² | - |
| 1777755194 | 23.33° C | 50% | 1019.5 hPa | 0 mm | - | 396 W/m² | - |
| 1777754891 | 22.22° C | 52% | 1019.6 hPa | 0 mm | - | 374 W/m² | - |
| 1777754589 | 22.22° C | 52% | 1019.6 hPa | 0 mm | - | 373 W/m² | - |
| 1777754286 | 22.78° C | 51% | 1019.7 hPa | 0 mm | - | 353 W/m² | - |
| 1777753984 | 21.67° C | 53% | 1019.5 hPa | 0 mm | - | 357 W/m² | - |
| 1777753683 | 22.22° C | 52% | 1019.6 hPa | 0 mm | - | 391 W/m² | - |
| 1777753381 | 22.78° C | 51% | 1019.8 hPa | 0 mm | - | 406 W/m² | - |
| 1777753079 | 21.67° C | 52% | 1019.8 hPa | 0 mm | - | 423 W/m² | - |
| 1777752775 | 21.67° C | 53% | 1020.1 hPa | 0 mm | - | 404 W/m² | - |
| 1777752471 | 22.22° C | 52% | 1019.8 hPa | 0 mm | - | 415 W/m² | - |
| 1777752167 | 22.78° C | 52% | 1020 hPa | 0 mm | - | 410 W/m² | - |
| 1777751866 | 22.22° C | 52% | 1020.1 hPa | 0 mm | - | 408 W/m² | - |
| 1777751562 | 21.67° C | 54% | 1020.1 hPa | 0 mm | - | 390 W/m² | - |
| 1777751258 | 21.11° C | 54% | 1020.2 hPa | 0 mm | - | 409 W/m² | - |
| 1777750956 | 22.22° C | 52% | 1020.2 hPa | 0 mm | - | 424 W/m² | - |
* Rain latest hour (hover to see other rain measurements)
** Current wind speed in m/s (hover to see current wind gust speed)